Weather History for KJKL - February, 2011

Change the Weather History Date:

Wednesday, February 23, 2011

  Actual Average Record
Temperature  
Mean Temperature 40 °F 41 °F  
Max Temperature 51 °F 50 °F 79 °F (1996)
Min Temperature 29 °F 32 °F 12 °F (2015)
Degree Days  
Heating Degree Days 25 24  
Month to date heating degree days 585 617  
Since 1 July heating degree days 3461 3183  
Cooling Degree Days 0 0  
Month to date cooling degree days 0 0  
Year to date cooling degree days 0 0  
Moisture  
Dew Point 29 °F    
Average Humidity 69    
Maximum Humidity 92    
Minimum Humidity 46    
Precipitation  
Precipitation 0.00 in 0.14 in 0.94 in (1994)
Month to date precipitation 1.43 3.07  
Year to date precipitation 4.15 6.68  
Snow  
Snow 0.00 in 0.20 in 1.60 in (2003)
Month to date snowfall 3.9 6.0  
Since 1 July snowfall 36.0 18.6  
Snow Depth 0.00 in    
Sea Level Pressure  
Sea Level Pressure 30.22 in    
Wind  
Wind Speed 1 mph (East)    
Max Wind Speed 7 mph    
Max Gust Speed 9 mph    
Visibility 8 miles    
Events      
T = Trace of Precipitation, MM = Missing Value Source: NWS Daily Summary

Daily Weather History Graph

Daily Weather History Graph

Search for Another Location

Airport or City:

Trip Planner

Search our weather history database for the weather conditions in past years. The results will help you decide how hot, cold, wet, or windy it might be!

Date:

Astronomy

Feb. 23, 2011 Rise Set
Actual Time 7:13 AM EST 6:20 PM EST
Civil Twilight 6:46 AM EST 6:47 PM EST
Nautical Twilight 6:16 AM EST 7:17 PM EST
Astronomical Twilight 5:45 AM EST 7:47 PM EST
Moon No Moon Rise 10:08 AM EST (2/23)
Length of Visible Light 12h 00m
Length of Day
11h 07m
Waning Gibbous, 64% of the Moon is Illuminated
Feb 23
Waning Gibbous
Feb 24
Last Quarter
Mar 4
New
Mar 12
First Quarter
Mar 19
Full

Hourly Weather History & Observations

Time (EST) Temp. Windchill Dew Point Humidity Pressure Visibility Wind Dir Wind Speed Gust Speed Precip Events Conditions
12:53 AM 32.0 °F - 28.0 °F 85% 30.24 in 9.0 mi Calm Calm - N/A   Unknown
1:53 AM 32.0 °F - 27.0 °F 82% 30.23 in 9.0 mi Calm Calm - N/A   Unknown
2:53 AM 30.2 °F - 26.6 °F 86% 30.21 in 7.0 mi Calm Calm - N/A   Unknown
3:53 AM 30.0 °F - 26.1 °F 85% 30.23 in 4.0 mi Calm Calm - N/A   Mist
4:53 AM 30.9 °F - 27.0 °F 85% 30.25 in 4.0 mi Calm Calm - N/A   Mist
5:53 AM 30.0 °F - 27.0 °F 88% 30.26 in 4.0 mi Calm Calm - N/A   Mist
6:53 AM 28.9 °F 25.2 °F 26.1 °F 89% 30.27 in 2.5 mi ENE 3.5 mph - N/A   Mist
7:05 AM 30.2 °F 25.4 °F 26.6 °F 86% 30.24 in 4.0 mi NE 4.6 mph - N/A   Mist
7:53 AM 30.9 °F - 28.0 °F 89% 30.29 in 4.0 mi Calm Calm - N/A   Mist
8:53 AM 30.9 °F - 28.0 °F 89% 30.30 in 5.0 mi Calm Calm - N/A   Mist
9:53 AM 32.0 °F 28.7 °F 28.0 °F 85% 30.30 in 7.0 mi East 3.5 mph - N/A   Unknown
10:53 AM 34.0 °F - 28.9 °F 82% 30.28 in 10.0 mi Calm Calm - N/A   Unknown
11:53 AM 39.9 °F - 32.0 °F 73% 30.27 in 10.0 mi Calm Calm - N/A   Unknown
12:53 PM 43.0 °F - 30.9 °F 62% 30.25 in 10.0 mi Calm Calm - N/A   Unknown
1:53 PM 46.9 °F - 30.9 °F 54% 30.22 in 10.0 mi Variable 4.6 mph - N/A   Unknown
2:53 PM 48.0 °F - 30.0 °F 50% 30.21 in 10.0 mi Calm Calm - N/A   Unknown
3:53 PM 50.0 °F - 30.9 °F 48% 30.19 in 10.0 mi Calm Calm - N/A   Unknown
4:53 PM 48.9 °F - 28.9 °F 46% 30.19 in 10.0 mi Calm Calm - N/A   Unknown
5:53 PM 46.0 °F - 30.0 °F 54% 30.17 in 10.0 mi Calm Calm - N/A   Unknown
6:53 PM 45.0 °F - 28.9 °F 53% 30.18 in 10.0 mi Calm Calm - N/A   Unknown
7:53 PM 45.0 °F 43.5 °F 30.0 °F 56% 30.17 in 10.0 mi NE 3.5 mph - N/A   Unknown
8:53 PM 44.1 °F 42.5 °F 30.9 °F 60% 30.17 in 10.0 mi ENE 3.5 mph - N/A   Unknown
9:53 PM 44.1 °F 42.5 °F 32.0 °F 63% 30.16 in 10.0 mi East 3.5 mph - N/A   Unknown
10:53 PM 44.6 °F - 30.2 °F 57% 30.13 in 10.0 mi Calm Calm - N/A   Mostly Cloudy
11:53 PM 46.0 °F 44.8 °F 30.9 °F 56% 30.11 in 10.0 mi SSE 3.5 mph - N/A   Overcast